Hourly Data Report for August 07, 2003

SHERBROOKE A
QUEBEC

45°26'00.000" N
71°41'00.000" W
241.40 m
7028124
71610
YSC

Download Data

Hourly Data (August 2003)
Hourly Data Report for August 7, 2003
TIME
LST
Temp Definition
°C
Dew Point Definition
°C
Rel Hum Definition
%
Precip. Amount Definition
mm

Wind Dir Definition
10's deg

Wind Spd Definition
km/h
Visibility Definition
km
Stn Press Definition
kPa
Hmdx Definition


Wind Chill Definition


Weather Definition


00:00 17.5 16.7 95     0 8.0 98.39      
01:00 16.4 15.6 95   13 6 0.3 98.39      
02:00 16.6 15.7 94     0 8.0 98.43      
03:00 15.7 14.8 94   14 4 4.8 98.44      
04:00 15.5 14.7 95   7 4 1.4 98.42      
05:00 14.9 14.2 96   12 4 4.0 98.45      
06:00 17.7 16.7 94   10 4 4.8 98.49      
07:00 19.1 17.6 91   9 4 8.0 98.55     Fog
08:00 20.8 18.4 86     0 12.9 98.55 27   Mainly Clear
09:00 22.6 19.2 81   26 6 19.3 98.54 30   Mainly Clear
10:00 24.4 19.4 74   24 7 19.3 98.51 31   Mostly Cloudy
11:00 25.0 19.5 72   25 6 19.3 98.51 32   Mostly Cloudy
12:00 25.0 18.7 68   24 9 16.1 98.50 32   Mainly Clear
13:00 25.8 18.9 66   20 4 16.1 98.49 32   Mostly Cloudy
14:00 27.0 18.1 58   26 7 16.1 98.44 33   Mainly Clear
15:00 27.2 17.9 57   25 11 16.1 98.44 33   Mainly Clear
16:00 27.5 19.2 61   26 7 12.9 98.42 34   Mainly Clear
17:00 25.8 19.8 70   31 9 11.3 98.42 33    
18:00 23.9 19.6 77   32 6 11.3 98.46 31    
19:00 22.8 20.3 86     0 8.0 98.50 31    
20:00 20.8 19.2 91   7 4 6.4 98.55 28    
21:00 21.1 19.0 88   7 7 6.4 98.58 28    
22:00 20.2 18.3 89   9 6 6.4 98.58 26    
23:00 18.9 17.7 93   8 4 4.8 98.57      

Notes on Data Quality.

Legend

  • E = Estimated
  • M = Missing
  • NA = Not Available*
  • [empty] = Indicates an unobserved value
Date modified: